[[{"header":{"parameterUnit":"m.s-1","parameterCategory":2,"la1":30.2991,"la2":30.254,"lo1":-89.0895,"lo2":-89.0444,"dy":0.0017,"dx":0.0017,"nx":28,"ny":28,"refTime":"2024-02-04T09:00:00:Z","depth":"0","parameterNumber":2,"parameterNumberName":"U-component_of_CURRENTS"},"data":[0,0,0,0,0,0,0,0,0,0,0,0,0,0,0,0,0,0,0,0,0,0,0,0,0,0,0,0,0,0,0,0,0,0,0,0,0,0,0,0,0,0,0,0,0,0,0,0,0,0,0,0,0,0,0,0,0,0,-0.2264,-0.2265,0,-0.2291,-0.2291,-0.2291,-0.2272,-0.2271,-0.227,-0.227,-0.2264,-0.2264,-0.2265,0,0,0,0,0,0,0,0,0,0,0,0,0,-0.2201,-0.2202,-0.2264,-0.2265,-0.2265,-0.229,-0.2291,-0.2291,-0.2272,-0.2271,-0.227,-0.2269,-0.2264,-0.2264,-0.2265,0,0,0,0,0,0,0,0,0,0,0,0,0,-0.2226,-0.2203,-0.2264,-0.226,-0.226,-0.229,-0.2291,-0.2291,-0.2272,-0.2271,-0.227,-0.2269,-0.2264,-0.2264,-0.2265,-0.2289,0,0,-0.2267,-0.2268,0,0,0,0,0,0,0,0,-0.2225,-0.2228,-0.226,-0.2261,-0.2261,-0.2279,-0.2267,-0.2289,-0.2272,-0.2265,-0.227,-0.2268,-0.2268,-0.2268,-0.2273,-0.2289,-0.2289,-0.2267,-0.2268,-0.2268,-0.2268,0,0,0,0,0,0,0,-0.2223,-0.2227,-0.2272,-0.2261,-0.2261,-0.2259,-0.2261,-0.2271,-0.227,-0.2266,-0.2265,-0.2272,-0.2267,-0.2272,-0.2273,-0.2289,-0.2267,-0.2268,-0.2268,-0.2269,-0.2329,-0.233,0,0,0,0,0,0,-0.2225,-0.2226,-0.2272,-0.2273,-0.2242,-0.2261,-0.2263,-0.2272,-0.227,-0.227,-0.2272,-0.2271,-0.2272,-0.2272,-0.2272,-0.2301,-0.2268,-0.2269,-0.2269,-0.2327,-0.2329,-0.233,0,0,0,0,0,0,-0.2224,-0.2229,-0.2271,-0.2251,-0.2257,-0.2263,-0.2273,-0.2273,-0.2274,-0.2276,-0.2274,-0.2273,-0.2271,-0.2271,-0.2283,-0.23,-0.2269,-0.227,-0.2326,-0.2328,-0.2329,-0.2358,0,0,0,0,0,0,-0.2222,-0.2229,-0.2232,-0.2252,-0.2258,-0.229,-0.2274,-0.2274,-0.2281,-0.2279,-0.2276,-0.2275,-0.227,-0.2283,-0.2284,-0.2301,-0.227,-0.2325,-0.2327,-0.2329,-0.2356,-0.2361,-0.2365,0,0,0,0,0,-0.222,-0.2229,-0.2232,-0.2237,-0.2264,-0.229,-0.2293,-0.2293,-0.2282,-0.2288,-0.2287,-0.2275,-0.2298,-0.2284,-0.2286,-0.2303,-0.2323,-0.2326,-0.2329,-0.2354,-0.236,-0.2365,0,0,0,0,0,0,-0.22,-0.2229,-0.2232,-0.2249,-0.2269,-0.2288,-0.2291,-0.2295,-0.23,-0.2293,-0.2288,-0.2288,-0.2305,-0.2304,-0.2289,-0.2328,-0.231,-0.2313,-0.2328,-0.2334,-0.2338,-0.2333,-0.2271,0,0,0,0,0,-0.22,-0.2212,-0.2242,-0.2253,-0.2264,-0.2278,-0.2287,-0.2291,-0.2301,-0.2302,-0.2302,-0.2307,-0.232,-0.2325,-0.2333,-0.2355,-0.2347,-0.2369,-0.2374,-0.2378,-0.2376,-0.2382,-0.2387,-0.2339,-0.2339,-0.2339,0,0,-0.2194,-0.2212,-0.2217,-0.2249,-0.2261,-0.2289,-0.228,-0.2296,-0.2317,-0.2302,-0.232,-0.2321,-0.2329,-0.2352,-0.236,-0.2352,-0.2389,-0.2381,-0.2384,-0.238,-0.2386,-0.239,-0.2394,-0.2341,-0.234,-0.234,0,0,-0.2195,-0.2205,-0.2221,-0.2243,-0.227,-0.2288,-0.2295,-0.2318,-0.2324,-0.2349,-0.2343,-0.2355,-0.2373,-0.2385,-0.2393,-0.2431,-0.2411,-0.2434,-0.2454,-0.2461,-0.2464,-0.2467,-0.2465,-0.2468,-0.2438,-0.2438,-0.2438,0,-0.2185,-0.2212,-0.2228,-0.2255,-0.2273,-0.229,-0.2316,-0.2335,-0.2359,-0.237,-0.2357,-0.2389,-0.2392,-0.2427,-0.2436,-0.2441,-0.2434,-0.243,-0.2465,-0.2468,-0.2471,-0.2468,-0.247,-0.244,-0.244,-0.244,-0.2439,0,-0.2203,-0.2228,-0.2238,-0.2279,-0.2303,-0.2325,-0.2362,-0.2382,-0.239,-0.2407,-0.2433,-0.2438,-0.2454,-0.2464,-0.2459,-0.2487,-0.2473,-0.2467,-0.2447,-0.2477,-0.2473,-0.2474,-0.2442,-0.2442,-0.2441,-0.2441,0,0,-0.2168,-0.2238,-0.2239,-0.2265,-0.2317,-0.2337,-0.2381,-0.2424,-0.2449,-0.2466,-0.2494,-0.2514,-0.2505,-0.2514,-0.2513,-0.252,-0.2532,-0.2499,-0.2499,-0.2489,-0.2537,-0.2507,-0.2506,-0.2527,-0.2527,-0.2528,-0.2526,0,-0.2174,-0.2224,-0.2261,-0.2308,-0.2336,-0.2376,-0.2416,-0.2455,-0.2484,-0.2517,-0.2528,-0.2548,-0.253,-0.2533,-0.2539,-0.2538,-0.2538,-0.2532,-0.2516,-0.2515,-0.2479,-0.2508,-0.2432,-0.2423,-0.2528,-0.2528,-0.2529,0,-0.2173,-0.2208,-0.2255,-0.2324,-0.2339,-0.2371,-0.243,-0.2472,-0.2529,-0.2547,-0.2572,-0.258,-0.2601,-0.2574,-0.2581,-0.2575,-0.2553,-0.2546,-0.2546,-0.2507,-0.2489,-0.241,-0.2422,-0.2403,-0.2531,-0.2531,-0.2531,0,-0.2125,-0.2201,-0.2234,-0.2257,-0.234,-0.2364,-0.2405,-0.2469,-0.2508,-0.2561,-0.2586,-0.2612,-0.2621,-0.261,-0.2596,-0.2586,-0.2596,-0.2582,-0.2534,-0.2532,-0.2458,-0.2449,-0.2441,-0.2574,-0.2574,-0.2574,-0.2574,0,-0.211,-0.2134,-0.2213,-0.2228,-0.2266,-0.2333,-0.2379,-0.2427,-0.2499,-0.2537,-0.2587,-0.2616,-0.2627,-0.2639,-0.2614,-0.2585,-0.2609,-0.254,-0.2532,-0.2467,-0.2459,-0.2431,-0.2436,-0.2574,-0.2574,-0.2574,-0.2574,0,-0.2047,-0.2103,-0.2143,-0.2221,-0.2244,-0.2265,-0.2355,-0.2384,-0.2467,-0.252,-0.2535,-0.2618,-0.2634,-0.2644,-0.2636,-0.2604,-0.2537,-0.2559,-0.248,-0.2463,-0.2393,-0.2403,-0.2359,-0.2283,-0.2507,-0.2506,-0.2506,0,-0.202,-0.2033,-0.211,-0.2123,-0.2154,-0.2204,-0.223,-0.2337,-0.2375,-0.2512,-0.2522,-0.2589,-0.2611,-0.2617,-0.2579,-0.2542,-0.2504,-0.2442,-0.2408,-0.2383,-0.2389,-0.2369,-0.2306,-0.2323,-0.232,-0.2319,-0.2317,0,-0.195,-0.1976,-0.2,-0.2034,-0.206,-0.2104,-0.2157,-0.2194,-0.2315,-0.238,-0.2461,-0.2507,-0.2547,-0.2508,-0.2485,-0.244,-0.238,-0.2406,-0.24,-0.2262,-0.222,-0.2144,-0.2332,-0.2303,-0.2304,-0.2305,-0.2306,-0.2307,-0.1873,-0.1873,-0.1901,-0.1923,-0.1953,-0.1977,-0.198,-0.2062,-0.2126,-0.2223,-0.2339,-0.2418,-0.2438,-0.2408,-0.2357,-0.2264,-0.2272,-0.2201,-0.222,-0.2207,-0.2117,-0.2272,-0.2225,-0.2226,-0.2227,-0.2227,-0.2228,0,-0.177,-0.1778,-0.1788,-0.1808,-0.1793,-0.1855,-0.1901,-0.1893,-0.1929,-0.2086,-0.2165,-0.2311,-0.2267,-0.2278,-0.2209,-0.2115,-0.2023,-0.2059,-0.2013,-0.1958,-0.211,-0.2085,-0.1981,-0.1981,-0.1981,-0.1981,-0.1981,-0.1981,-0.1711,-0.168,-0.1692,-0.1634,-0.1644,-0.1597,-0.16,-0.1622,-0.1706,-0.184,-0.2011,-0.2186,-0.2235,-0.2317,-0.217,-0.2047,-0.1957,-0.1903,-0.1893,-0.2021,-0.2035,-0.2049,-0.2026,-0.1912,-0.1912,-0.1664,-0.1663,-0.1662]},{"header":{"parameterUnit":"m.s-1","parameterCategory":2,"la1":30.2991,"la2":30.254,"lo1":-89.0895,"lo2":-89.0444,"dy":0.0017,"dx":0.0017,"nx":28,"ny":28,"refTime":"2024-02-04T09:00:00:Z","depth":"0","parameterNumber":3,"parameterNumberName":"V-component_of_CURRENTS"},"data":[0,0,0,0,0,0,0,0,0,0,0,0,0,0,0,0,0,0,0,0,0,0,0,0,0,0,0,0,0,0,0,0,0,0,0,0,0,0,0,0,0,0,0,0,0,0,0,0,0,0,0,0,0,0,0,0,0,0,-0.0332,-0.0331,0,-0.0261,-0.026,-0.026,-0.0211,-0.0211,-0.021,-0.021,-0.0111,-0.0109,-0.0106,0,0,0,0,0,0,0,0,0,0,0,0,0,-0.0388,-0.0387,-0.0332,-0.0331,-0.033,-0.0261,-0.026,-0.0259,-0.0211,-0.0211,-0.021,-0.021,-0.0112,-0.0109,-0.0106,0,0,0,0,0,0,0,0,0,0,0,0,0,-0.0345,-0.0387,-0.0332,-0.0298,-0.0295,-0.0262,-0.026,-0.0259,-0.0211,-0.0211,-0.021,-0.021,-0.0113,-0.0109,-0.0106,-0.0093,0,0,-0.0095,-0.0093,0,0,0,0,0,0,0,0,-0.0347,-0.0343,-0.0304,-0.0301,-0.0296,-0.0245,-0.0244,-0.0202,-0.0211,-0.0242,-0.021,-0.0209,-0.0154,-0.0147,-0.0134,-0.0089,-0.0084,-0.0095,-0.0092,-0.0091,-0.009,0,0,0,0,0,0,0,-0.035,-0.0345,-0.0303,-0.0303,-0.0299,-0.0274,-0.0268,-0.0236,-0.02,-0.0239,-0.0236,-0.0229,-0.0151,-0.0138,-0.0131,-0.0083,-0.0095,-0.0092,-0.0089,-0.0088,-0.0019,-0.0019,0,0,0,0,0,0,-0.0363,-0.0348,-0.0306,-0.0301,-0.0322,-0.0274,-0.0266,-0.0261,-0.0201,-0.0192,-0.023,-0.0227,-0.0144,-0.0136,-0.0128,-0.0111,-0.0091,-0.0088,-0.0086,-0.0018,-0.0019,-0.0019,0,0,0,0,0,0,-0.0364,-0.036,-0.0309,-0.0324,-0.0315,-0.0273,-0.0268,-0.026,-0.0246,-0.0194,-0.0184,-0.0223,-0.0143,-0.0133,-0.0102,-0.0107,-0.0086,-0.0083,-0.0018,-0.0019,-0.0019,-0.0077,0,0,0,0,0,0,-0.0366,-0.0361,-0.0363,-0.0325,-0.0315,-0.0295,-0.0268,-0.0259,-0.0243,-0.0239,-0.0186,-0.0176,-0.0142,-0.0107,-0.0098,-0.0101,-0.008,-0.0018,-0.0018,-0.0019,-0.0074,-0.0079,-0.0083,0,0,0,0,0,-0.0369,-0.0375,-0.0364,-0.0359,-0.0319,-0.0296,-0.0289,-0.0257,-0.0243,-0.0241,-0.0204,-0.0177,-0.0104,-0.0105,-0.0094,-0.0096,-0.0018,-0.0018,-0.0019,-0.0072,-0.0078,-0.0083,0,0,0,0,0,0,-0.0399,-0.037,-0.0356,-0.0353,-0.0329,-0.0288,-0.0284,-0.0262,-0.0231,-0.0227,-0.0178,-0.0166,-0.0143,-0.0112,-0.0114,-0.0078,-0.0057,-0.0056,-0.0102,-0.0107,-0.0111,-0.0121,-0.0077,0,0,0,0,0,-0.0409,-0.0408,-0.0373,-0.0372,-0.0362,-0.0324,-0.0311,-0.029,-0.0257,-0.0244,-0.0206,-0.0168,-0.0137,-0.0117,-0.0086,-0.0064,-0.0029,-0.0059,-0.0064,-0.0067,-0.0069,-0.0025,-0.0025,-0.0021,-0.0021,-0.0021,0,0,-0.042,-0.0405,-0.0403,-0.0379,-0.0357,-0.0351,-0.0315,-0.0301,-0.0294,-0.0238,-0.0219,-0.0183,-0.0136,-0.0113,-0.01,-0.0087,-0.0051,-0.0068,-0.0072,-0.0071,-0.0026,-0.0026,-0.0026,-0.0021,-0.0021,-0.0021,0,0,-0.0448,-0.043,-0.0439,-0.0426,-0.0402,-0.0375,-0.0374,-0.0336,-0.0316,-0.0294,-0.0254,-0.022,-0.0173,-0.0138,-0.0115,-0.0123,-0.0078,-0.0116,-0.0141,-0.0099,-0.0099,-0.0098,-0.0057,-0.0052,-0.0115,-0.0115,-0.0115,0,-0.0465,-0.0471,-0.0439,-0.0447,-0.0443,-0.039,-0.0401,-0.0371,-0.0329,-0.0313,-0.0297,-0.0224,-0.0184,-0.0149,-0.0152,-0.0132,-0.0102,-0.0126,-0.0104,-0.0103,-0.0102,-0.0059,-0.0053,-0.0118,-0.0117,-0.0117,-0.0117,0,-0.0501,-0.0506,-0.0511,-0.0504,-0.0494,-0.0493,-0.0454,-0.0434,-0.0403,-0.037,-0.0332,-0.0274,-0.0229,-0.0213,-0.0183,-0.0155,-0.0135,-0.0119,-0.0093,-0.0106,-0.006,-0.0053,-0.0122,-0.0121,-0.012,-0.0119,0,0,-0.0536,-0.0537,-0.0539,-0.0551,-0.0526,-0.0523,-0.0508,-0.0476,-0.0466,-0.0414,-0.0394,-0.0334,-0.0295,-0.0266,-0.0221,-0.0181,-0.0144,-0.0151,-0.0147,-0.0113,-0.005,-0.0009,0.0004,-0.0124,-0.0124,-0.0123,-0.0023,0,-0.0573,-0.0611,-0.0594,-0.0621,-0.0635,-0.0592,-0.0587,-0.0553,-0.0506,-0.0471,-0.0398,-0.0363,-0.0317,-0.0296,-0.0248,-0.017,-0.0127,-0.0172,-0.004,-0.0036,-0.0,0.0012,0.0048,0.0142,-0.0016,-0.0015,-0.0014,0,-0.0614,-0.0635,-0.0675,-0.0688,-0.069,-0.0693,-0.0672,-0.0656,-0.0588,-0.0556,-0.0493,-0.0432,-0.0357,-0.0323,-0.0189,-0.022,-0.0143,-0.0081,-0.0075,-0.0011,0.0019,0.013,0.0162,0.031,-0.0002,-0.0003,-0.0004,0,-0.0665,-0.0689,-0.0726,-0.0732,-0.0735,-0.074,-0.0729,-0.0682,-0.0672,-0.0598,-0.058,-0.0479,-0.0427,-0.0319,-0.0178,-0.0185,-0.0029,-0.0021,0.0091,0.0095,0.0165,0.0174,0.0354,0.0068,0.0068,0.0068,0.0067,0,-0.0717,-0.0743,-0.0753,-0.0777,-0.082,-0.0795,-0.0812,-0.0786,-0.0741,-0.0734,-0.0625,-0.0591,-0.0425,-0.0309,-0.0189,-0.0018,-0.0031,0.0093,0.0126,0.0146,0.0151,0.0316,0.0385,0.0071,0.0071,0.007,0.0069,0,-0.0768,-0.0773,-0.082,-0.0839,-0.0849,-0.0876,-0.0881,-0.0885,-0.0834,-0.0817,-0.0798,-0.0666,-0.0511,-0.0333,-0.0144,-0.003,0.0231,0.0185,0.0199,0.0232,0.0463,0.0526,0.0752,0.0845,0.0321,0.0322,0.0324,0,-0.0799,-0.0828,-0.0876,-0.0912,-0.0923,-0.0953,-0.0976,-0.0942,-0.0942,-0.0865,-0.0864,-0.0706,-0.0596,-0.0284,-0.0045,0.0193,0.0316,0.0361,0.0354,0.0493,0.0589,0.0637,0.0701,0.0426,0.0428,0.043,0.0432,0,-0.0856,-0.087,-0.0909,-0.0988,-0.1027,-0.1069,-0.109,-0.1108,-0.106,-0.1038,-0.0971,-0.0872,-0.0546,-0.025,0.0084,0.0234,0.0493,0.0403,0.0553,0.0695,0.0756,0.0855,0.034,0.0447,0.0446,0.0444,0.0444,0.0443,-0.0891,-0.0937,-0.099,-0.1062,-0.1114,-0.117,-0.1206,-0.1213,-0.1221,-0.1179,-0.1061,-0.0909,-0.0424,0.0057,0.0245,0.0662,0.063,0.0768,0.0836,0.0873,0.0965,0.0482,0.062,0.0619,0.0619,0.0618,0.0618,0,-0.0936,-0.0987,-0.1061,-0.1143,-0.1212,-0.122,-0.1274,-0.1299,-0.1317,-0.1238,-0.1149,-0.0682,-0.0199,0.026,0.0868,0.1079,0.1137,0.1187,0.1269,0.1315,0.0898,0.0903,0.1102,0.1102,0.1102,0.1102,0.1102,0.1102,-0.096,-0.104,-0.1081,-0.1205,-0.1262,-0.1343,-0.1375,-0.1401,-0.1362,-0.122,-0.0999,-0.0812,-0.0087,0.0937,0.1493,0.1526,0.1702,0.1684,0.1782,0.1493,0.1458,0.1425,0.1448,0.1758,0.1759,0.218,0.2185,0.2188]}],[{"header":{"parameterUnit":"m.s-1","parameterCategory":2,"la1":30.2991,"la2":30.254,"lo1":-89.0895,"lo2":-89.0444,"dy":0.0017,"dx":0.0017,"nx":28,"ny":28,"refTime":"2024-02-04T09:00:00:Z","depth":"2","parameterNumber":2,"parameterNumberName":"U-component_of_CURRENTS"},"data":[0,0,0,0,0,0,0,0,0,0,0,0,0,0,0,0,0,0,0,0,0,0,0,0,0,0,0,0,0,0,0,0,0,0,0,0,0,0,0,0,0,0,0,0,0,0,0,0,0,0,0,0,0,0,0,0,0,0,-0.219,-0.219,0,-0.2215,-0.2215,-0.2215,-0.22,-0.2199,-0.2199,-0.2198,-0.2194,-0.2195,-0.2195,0,0,0,0,0,0,0,0,0,0,0,0,0,-0.213,-0.2131,-0.219,-0.219,-0.2191,-0.2215,-0.2215,-0.2215,-0.22,-0.2199,-0.2199,-0.2198,-0.2194,-0.2195,-0.2195,0,0,0,0,0,0,0,0,0,0,0,0,0,-0.2153,-0.2131,-0.2189,-0.2187,-0.2187,-0.2215,-0.2215,-0.2216,-0.22,-0.2199,-0.2198,-0.2198,-0.2194,-0.2195,-0.2195,-0.2216,0,0,-0.2197,-0.2197,0,0,0,0,0,0,0,0,-0.2152,-0.2155,-0.2187,-0.2187,-0.2188,-0.2205,-0.2193,-0.2215,-0.22,-0.2193,-0.2198,-0.2197,-0.2197,-0.2198,-0.2202,-0.2215,-0.2215,-0.2197,-0.2198,-0.2198,-0.2198,0,0,0,0,0,0,0,-0.215,-0.2154,-0.2198,-0.2188,-0.2188,-0.2186,-0.2188,-0.2197,-0.2197,-0.2194,-0.2193,-0.22,-0.2197,-0.2201,-0.2201,-0.2215,-0.2197,-0.2198,-0.2198,-0.2198,-0.2256,-0.2257,0,0,0,0,0,0,-0.2153,-0.2153,-0.2197,-0.2199,-0.217,-0.2188,-0.219,-0.2199,-0.2198,-0.2198,-0.22,-0.2199,-0.22,-0.2201,-0.2201,-0.2231,-0.2198,-0.2198,-0.2199,-0.2255,-0.2256,-0.2257,0,0,0,0,0,0,-0.2151,-0.2156,-0.2196,-0.2178,-0.2183,-0.219,-0.22,-0.22,-0.2203,-0.2204,-0.2202,-0.2203,-0.22,-0.22,-0.2213,-0.2231,-0.2199,-0.2199,-0.2253,-0.2255,-0.2257,-0.2288,0,0,0,0,0,0,-0.2149,-0.2156,-0.216,-0.2178,-0.2184,-0.2214,-0.2201,-0.2201,-0.2209,-0.2207,-0.2206,-0.2204,-0.2199,-0.2212,-0.2213,-0.2231,-0.22,-0.2252,-0.2254,-0.2256,-0.2285,-0.2291,-0.2295,0,0,0,0,0,-0.2147,-0.2156,-0.216,-0.2165,-0.219,-0.2215,-0.2218,-0.2219,-0.221,-0.2216,-0.2216,-0.2204,-0.2227,-0.2213,-0.2215,-0.2233,-0.2251,-0.2253,-0.2256,-0.2283,-0.229,-0.2295,0,0,0,0,0,0,-0.213,-0.2157,-0.216,-0.2176,-0.2196,-0.2213,-0.2217,-0.2222,-0.2227,-0.2222,-0.2217,-0.2217,-0.2235,-0.2233,-0.2219,-0.2257,-0.2238,-0.2241,-0.2258,-0.2264,-0.2269,-0.2264,-0.22,0,0,0,0,0,-0.213,-0.2142,-0.217,-0.2181,-0.2191,-0.2205,-0.2214,-0.2219,-0.2229,-0.223,-0.2232,-0.2236,-0.2249,-0.2254,-0.2261,-0.2283,-0.2275,-0.2297,-0.2302,-0.2306,-0.2304,-0.2311,-0.2315,-0.2266,-0.2266,-0.2266,0,0,-0.2125,-0.2141,-0.2147,-0.2177,-0.2189,-0.2215,-0.2207,-0.2225,-0.2245,-0.223,-0.2249,-0.2251,-0.2258,-0.2281,-0.2289,-0.228,-0.2318,-0.2309,-0.2313,-0.2309,-0.2314,-0.2318,-0.2323,-0.2267,-0.2267,-0.2267,0,0,-0.2126,-0.2137,-0.2151,-0.2173,-0.22,-0.2216,-0.2224,-0.2247,-0.2254,-0.2279,-0.2274,-0.2286,-0.2304,-0.2314,-0.2322,-0.236,-0.2341,-0.2363,-0.2385,-0.2391,-0.2395,-0.2398,-0.2397,-0.24,-0.2368,-0.2368,-0.2368,0,-0.2118,-0.2143,-0.2159,-0.2184,-0.2202,-0.2219,-0.2245,-0.2264,-0.2287,-0.2298,-0.2288,-0.232,-0.2322,-0.2356,-0.2366,-0.237,-0.2364,-0.2361,-0.2396,-0.2399,-0.2401,-0.24,-0.2402,-0.2369,-0.2369,-0.2369,-0.2369,0,-0.2135,-0.2159,-0.2169,-0.2208,-0.2231,-0.2253,-0.2288,-0.2309,-0.2319,-0.2336,-0.2363,-0.2369,-0.2385,-0.2394,-0.239,-0.2418,-0.2405,-0.2398,-0.2378,-0.2408,-0.2405,-0.2407,-0.2372,-0.2371,-0.2371,-0.237,0,0,-0.2102,-0.2169,-0.217,-0.2195,-0.2245,-0.2264,-0.2308,-0.235,-0.2375,-0.2393,-0.2422,-0.2443,-0.2436,-0.2444,-0.2444,-0.2451,-0.2466,-0.2431,-0.2431,-0.2423,-0.2472,-0.244,-0.2439,-0.246,-0.2461,-0.2461,-0.2462,0,-0.2108,-0.2156,-0.2191,-0.2236,-0.2263,-0.2303,-0.2341,-0.238,-0.2409,-0.2442,-0.2454,-0.2476,-0.246,-0.2465,-0.2472,-0.2471,-0.2472,-0.2465,-0.2449,-0.2449,-0.2411,-0.2441,-0.2225,-0.2206,-0.2464,-0.2465,-0.2465,0,-0.2107,-0.2141,-0.2185,-0.2252,-0.2266,-0.2297,-0.2356,-0.2396,-0.2454,-0.2472,-0.2499,-0.2508,-0.2531,-0.2505,-0.2514,-0.2508,-0.2488,-0.2481,-0.2481,-0.2439,-0.242,-0.2218,-0.22,-0.2468,-0.2468,-0.2468,-0.2467,0,-0.2062,-0.2134,-0.2166,-0.2189,-0.2268,-0.2292,-0.2332,-0.2396,-0.2433,-0.2487,-0.2513,-0.254,-0.2551,-0.2542,-0.253,-0.252,-0.2532,-0.2517,-0.2469,-0.2466,-0.2274,-0.2254,-0.2511,-0.2511,-0.2511,-0.2511,-0.2511,0,-0.2047,-0.2071,-0.2147,-0.2161,-0.2199,-0.2263,-0.2309,-0.2356,-0.2427,-0.2463,-0.2514,-0.2543,-0.2557,-0.257,-0.2547,-0.2519,-0.2544,-0.2475,-0.2467,-0.2281,-0.2262,-0.2481,-0.2477,-0.2511,-0.2511,-0.2511,-0.2511,0,-0.1988,-0.2042,-0.208,-0.2156,-0.2178,-0.22,-0.2287,-0.2315,-0.2396,-0.2448,-0.2464,-0.2546,-0.2563,-0.2575,-0.2569,-0.2537,-0.2517,-0.2494,-0.2277,-0.2244,-0.2441,-0.2439,-0.2443,-0.2442,-0.2441,-0.244,-0.244,0,-0.1962,-0.1975,-0.205,-0.2062,-0.2092,-0.2142,-0.2167,-0.2271,-0.2306,-0.2439,-0.2448,-0.2515,-0.2533,-0.254,-0.248,-0.244,-0.2496,-0.223,-0.2177,-0.2443,-0.2435,-0.2435,-0.2435,-0.1929,-0.1924,-0.192,-0.1917,0,-0.1895,-0.1921,-0.1944,-0.1977,-0.2003,-0.2044,-0.2095,-0.2129,-0.2246,-0.2306,-0.2382,-0.2423,-0.2441,-0.2317,-0.2286,-0.223,-0.2225,-0.2152,-0.2472,-0.1997,-0.1963,-0.1955,-0.197,-0.1882,-0.1886,-0.1889,-0.189,-0.1892,-0.1822,-0.1822,-0.1849,-0.187,-0.1899,-0.192,-0.1921,-0.1992,-0.2048,-0.211,-0.2231,-0.223,-0.2211,-0.2075,-0.1972,-0.189,-0.205,-0.1939,-0.1948,-0.1962,-0.192,-0.1889,-0.1785,-0.1788,-0.179,-0.1792,-0.1794,0,-0.172,-0.173,-0.174,-0.1757,-0.174,-0.1802,-0.1842,-0.1816,-0.1836,-0.1922,-0.1972,-0.1803,-0.1737,-0.173,-0.1548,-0.1524,-0.1474,-0.1455,-0.1371,-0.1407,-0.1439,-0.1368,-0.1087,-0.1085,-0.1083,-0.1081,0,0,-0.1663,-0.1632,-0.1642,-0.1583,-0.1595,-0.1541,-0.1541,-0.1528,-0.1553,-0.1532,-0.1542,-0.1688,-0.1713,-0.1411,-0.1323,-0.118,-0.1283,-0.112,-0.1687,-0.1626,-0.1655,-0.1719,-0.1651,0,0,0,0,0]},{"header":{"parameterUnit":"m.s-1","parameterCategory":2,"la1":30.2991,"la2":30.254,"lo1":-89.0895,"lo2":-89.0444,"dy":0.0017,"dx":0.0017,"nx":28,"ny":28,"refTime":"2024-02-04T09:00:00:Z","depth":"2","parameterNumber":3,"parameterNumberName":"V-component_of_CURRENTS"},"data":[0,0,0,0,0,0,0,0,0,0,0,0,0,0,0,0,0,0,0,0,0,0,0,0,0,0,0,0,0,0,0,0,0,0,0,0,0,0,0,0,0,0,0,0,0,0,0,0,0,0,0,0,0,0,0,0,0,0,-0.0227,-0.0226,0,-0.0157,-0.0156,-0.0155,-0.0109,-0.0108,-0.0108,-0.0108,-0.001,-0.0008,-0.0005,0,0,0,0,0,0,0,0,0,0,0,0,0,-0.0282,-0.0282,-0.0227,-0.0226,-0.0225,-0.0157,-0.0156,-0.0155,-0.0109,-0.0108,-0.0108,-0.0108,-0.0011,-0.0008,-0.0005,0,0,0,0,0,0,0,0,0,0,0,0,0,-0.0239,-0.0281,-0.0227,-0.0194,-0.0191,-0.0157,-0.0156,-0.0154,-0.0109,-0.0108,-0.0108,-0.0108,-0.0012,-0.0008,-0.0005,0.001,0,0,0.0006,0.0008,0,0,0,0,0,0,0,0,-0.0242,-0.0237,-0.02,-0.0197,-0.0193,-0.0142,-0.0139,-0.0098,-0.0109,-0.0139,-0.0108,-0.0107,-0.0052,-0.0045,-0.0032,0.0015,0.0019,0.0006,0.0009,0.001,0.0011,0,0,0,0,0,0,0,-0.0245,-0.024,-0.0198,-0.0199,-0.0195,-0.017,-0.0164,-0.0131,-0.0098,-0.0136,-0.0133,-0.0127,-0.005,-0.0036,-0.003,0.002,0.0006,0.0009,0.0012,0.0013,0.0084,0.0083,0,0,0,0,0,0,-0.0257,-0.0243,-0.02,-0.0196,-0.0218,-0.017,-0.0163,-0.0158,-0.0098,-0.0089,-0.0127,-0.0125,-0.0042,-0.0034,-0.0026,-0.001,0.001,0.0013,0.0015,0.0084,0.0084,0.0083,0,0,0,0,0,0,-0.0259,-0.0254,-0.0203,-0.0218,-0.021,-0.017,-0.0164,-0.0157,-0.0143,-0.0092,-0.0082,-0.0122,-0.0042,-0.0031,-0.0,-0.0006,0.0015,0.0018,0.0084,0.0084,0.0084,0.0025,0,0,0,0,0,0,-0.0261,-0.0255,-0.0258,-0.0219,-0.021,-0.019,-0.0164,-0.0155,-0.014,-0.0137,-0.0084,-0.0074,-0.004,-0.0006,0.0003,-0.0,0.0021,0.0085,0.0084,0.0084,0.0028,0.0023,0.0019,0,0,0,0,0,-0.0263,-0.027,-0.0259,-0.0254,-0.0214,-0.0191,-0.0184,-0.0153,-0.0141,-0.0139,-0.0103,-0.0076,-0.0003,-0.0003,0.0008,0.0005,0.0085,0.0084,0.0084,0.0029,0.0024,0.0019,0,0,0,0,0,0,-0.0294,-0.0264,-0.0252,-0.0249,-0.0225,-0.0183,-0.0179,-0.0158,-0.0128,-0.0126,-0.0076,-0.0065,-0.0042,-0.0011,-0.0013,0.0023,0.0044,0.0046,-0.0001,-0.0005,-0.001,-0.002,0.0024,0,0,0,0,0,-0.0304,-0.0303,-0.0267,-0.0267,-0.0257,-0.022,-0.0207,-0.0187,-0.0155,-0.0141,-0.0105,-0.0067,-0.0035,-0.0015,0.0016,0.0039,0.0072,0.0043,0.0039,0.0035,0.0033,0.0077,0.0076,0.0081,0.0081,0.0081,0,0,-0.0316,-0.03,-0.0299,-0.0274,-0.0253,-0.0246,-0.0211,-0.0198,-0.0191,-0.0135,-0.0117,-0.0082,-0.0034,-0.0011,0.0002,0.0015,0.0051,0.0034,0.0031,0.0031,0.0076,0.0076,0.0075,0.0081,0.0081,0.0081,0,0,-0.0343,-0.0326,-0.0335,-0.0321,-0.0297,-0.027,-0.027,-0.0232,-0.0214,-0.0191,-0.0152,-0.0119,-0.0072,-0.0036,-0.0012,-0.002,0.0024,-0.0014,-0.0039,0.0003,0.0003,0.0003,0.0043,0.0047,-0.0013,-0.0013,-0.0013,0,-0.036,-0.0365,-0.0334,-0.0341,-0.0337,-0.0286,-0.0296,-0.0267,-0.0225,-0.021,-0.0195,-0.0122,-0.0083,-0.0047,-0.005,-0.003,-0.0001,-0.0025,-0.0003,-0.0002,-0.0,0.0041,0.0046,-0.0016,-0.0015,-0.0015,-0.0015,0,-0.0395,-0.0399,-0.0404,-0.0396,-0.0386,-0.0386,-0.0346,-0.0328,-0.0298,-0.0266,-0.0228,-0.0171,-0.0127,-0.0111,-0.0081,-0.0053,-0.0035,-0.0017,0.0008,-0.0004,0.0039,0.0046,-0.002,-0.0019,-0.0018,-0.0017,0,0,-0.043,-0.043,-0.0432,-0.0443,-0.0418,-0.0414,-0.0399,-0.0368,-0.0358,-0.0308,-0.0289,-0.0228,-0.0192,-0.0163,-0.0118,-0.0079,-0.0044,-0.005,-0.0046,-0.0014,0.0047,0.0084,0.0096,-0.0024,-0.0023,-0.0023,0.0072,0,-0.0467,-0.0502,-0.0484,-0.0509,-0.0523,-0.048,-0.0476,-0.0442,-0.0397,-0.0363,-0.0291,-0.0257,-0.0212,-0.0193,-0.0146,-0.0069,-0.0028,-0.0071,0.0058,0.0062,0.0093,0.0104,0.0081,0.0166,0.008,0.0081,0.0082,0,-0.0507,-0.0525,-0.0564,-0.0575,-0.0576,-0.058,-0.0559,-0.0543,-0.0476,-0.0446,-0.0386,-0.0326,-0.0253,-0.022,-0.0089,-0.012,-0.0045,0.0017,0.0022,0.0083,0.0112,0.0166,0.0183,0.0094,0.0093,0.0092,0.0091,0,-0.0558,-0.0579,-0.0613,-0.0619,-0.062,-0.0626,-0.0616,-0.057,-0.056,-0.0489,-0.0472,-0.0373,-0.0323,-0.0218,-0.008,-0.0087,0.0065,0.0075,0.018,0.0184,0.0204,0.0208,0.0162,0.0162,0.0161,0.0161,0.0161,0,-0.0607,-0.0633,-0.0641,-0.0665,-0.0707,-0.0681,-0.0699,-0.0673,-0.063,-0.0623,-0.0517,-0.0484,-0.0322,-0.0209,-0.0092,0.0074,0.0062,0.0182,0.0214,0.0183,0.0184,0.0152,0.0149,0.0165,0.0164,0.0163,0.0163,0,-0.066,-0.0663,-0.0708,-0.0725,-0.0735,-0.0763,-0.0768,-0.0772,-0.0722,-0.0706,-0.0689,-0.0559,-0.0409,-0.0235,-0.0051,0.006,0.021,0.0269,0.0224,0.0249,0.0301,0.0294,0.0393,0.0395,0.0397,0.0398,0.04,0,-0.069,-0.0718,-0.0764,-0.0799,-0.0811,-0.0841,-0.0864,-0.083,-0.0829,-0.0755,-0.0752,-0.0601,-0.0494,-0.0191,0.0035,0.0264,0.026,0.0374,0.036,0.0305,0.0326,0.0317,0.0308,0.0363,0.0364,0.0365,0.0365,0,-0.0747,-0.0761,-0.0799,-0.0876,-0.0915,-0.0954,-0.0976,-0.0992,-0.0945,-0.0922,-0.0857,-0.0762,-0.0453,-0.0191,0.0129,0.026,0.0337,0.0396,0.0361,0.0306,0.0285,0.0303,0.0294,0.0372,0.0371,0.0371,0.037,0.037,-0.0783,-0.0828,-0.0879,-0.095,-0.1001,-0.1054,-0.1089,-0.109,-0.1096,-0.1038,-0.0935,-0.0763,-0.0484,-0.0031,0.0197,0.0422,0.041,0.0467,0.0462,0.0456,0.0434,0.0416,0.0524,0.0524,0.0525,0.0525,0.0525,0,-0.0825,-0.0878,-0.095,-0.1029,-0.1092,-0.1105,-0.1155,-0.116,-0.117,-0.1079,-0.0983,-0.0668,-0.0348,-0.0054,0.0301,0.0507,0.049,0.0543,0.0476,0.0469,0.0462,0.0437,0.0531,0.0531,0.0532,0.0532,0,0,-0.0848,-0.0925,-0.0965,-0.1083,-0.1142,-0.1212,-0.1243,-0.1233,-0.1175,-0.1087,-0.0948,-0.072,-0.0358,-0.0102,0.0168,0.0353,0.035,0.0373,0.0347,0.0228,0.0219,0.0402,0.0355,0,0,0,0,0]}],[{"header":{"parameterUnit":"m.s-1","parameterCategory":2,"la1":30.2991,"la2":30.254,"lo1":-89.0895,"lo2":-89.0444,"dy":0.0017,"dx":0.0017,"nx":28,"ny":28,"refTime":"2024-02-04T09:00:00:Z","depth":"4","parameterNumber":2,"parameterNumberName":"U-component_of_CURRENTS"},"data":[0,0,0,0,0,0,0,0,0,0,0,0,0,0,0,0,0,0,0,0,0,0,0,0,0,0,0,0,0,0,0,0,0,0,0,0,0,0,0,0,0,0,0,0,0,0,0,0,0,0,0,0,0,0,0,0,0,0,-0.1484,-0.1485,0,-0.154,-0.154,-0.1541,-0.1576,-0.1576,-0.1577,-0.1577,-0.1627,-0.1628,-0.1629,0,0,0,0,0,0,0,0,0,0,0,0,0,-0.1406,-0.1407,-0.1484,-0.1485,-0.1485,-0.154,-0.154,-0.1541,-0.1576,-0.1576,-0.1577,-0.1577,-0.1626,-0.1628,-0.1629,0,0,0,0,0,0,0,0,0,0,0,0,0,-0.1447,-0.1407,-0.1484,-0.1511,-0.1514,-0.1539,-0.154,-0.1541,-0.1576,-0.1576,-0.1577,-0.1577,-0.1626,-0.1628,-0.1629,-0.1628,0,0,-0.1634,-0.1634,0,0,0,0,0,0,0,0,-0.1445,-0.145,-0.1506,-0.1509,-0.1512,-0.1553,-0.1531,-0.157,-0.1576,-0.1551,-0.1577,-0.1578,-0.1602,-0.1605,-0.1613,-0.1631,-0.1633,-0.1634,-0.1635,-0.1635,-0.1636,0,0,0,0,0,0,0,-0.1442,-0.1448,-0.1504,-0.1507,-0.1511,-0.1519,-0.1526,-0.1539,-0.1572,-0.1553,-0.1556,-0.1564,-0.1604,-0.1611,-0.1614,-0.1634,-0.1634,-0.1635,-0.1636,-0.1637,-0.1729,-0.173,0,0,0,0,0,0,-0.1437,-0.1445,-0.1503,-0.1506,-0.1481,-0.152,-0.1527,-0.1538,-0.1572,-0.1578,-0.1564,-0.1566,-0.1609,-0.1613,-0.1616,-0.1687,-0.1635,-0.1637,-0.1638,-0.1727,-0.1729,-0.1731,0,0,0,0,0,0,-0.1436,-0.1442,-0.1501,-0.1478,-0.1486,-0.1521,-0.1533,-0.1539,-0.1573,-0.158,-0.1586,-0.1595,-0.1609,-0.1614,-0.1654,-0.1686,-0.1637,-0.1639,-0.1726,-0.1728,-0.173,-0.1784,0,0,0,0,0,0,-0.1433,-0.1441,-0.146,-0.1478,-0.1487,-0.1533,-0.1533,-0.154,-0.1576,-0.158,-0.1608,-0.1612,-0.161,-0.1652,-0.1656,-0.1688,-0.164,-0.1724,-0.1727,-0.1729,-0.178,-0.1787,-0.1794,0,0,0,0,0,-0.143,-0.1448,-0.146,-0.1468,-0.1508,-0.1534,-0.1541,-0.1566,-0.1578,-0.1597,-0.162,-0.1613,-0.1673,-0.1655,-0.1659,-0.1692,-0.1722,-0.1726,-0.1729,-0.1777,-0.1786,-0.1794,0,0,0,0,0,0,-0.1425,-0.1454,-0.1468,-0.1495,-0.1522,-0.1541,-0.1564,-0.1581,-0.1615,-0.1626,-0.1631,-0.1636,-0.1682,-0.1681,-0.1661,-0.1727,-0.1697,-0.1701,-0.1732,-0.1741,-0.1747,-0.174,-0.1641,0,0,0,0,0,-0.1432,-0.1454,-0.1482,-0.1506,-0.1522,-0.1549,-0.1568,-0.1587,-0.1613,-0.1629,-0.165,-0.1674,-0.1695,-0.1714,-0.173,-0.1767,-0.1753,-0.1792,-0.1799,-0.1805,-0.1802,-0.1809,-0.1816,-0.1742,-0.1742,-0.1742,0,0,-0.1437,-0.1456,-0.1471,-0.1508,-0.153,-0.1561,-0.1562,-0.16,-0.1633,-0.1628,-0.1686,-0.1699,-0.171,-0.1752,-0.1773,-0.1759,-0.1821,-0.1809,-0.1814,-0.1808,-0.1813,-0.182,-0.1826,-0.1745,-0.1744,-0.1744,0,0,-0.1449,-0.1477,-0.1499,-0.1526,-0.1567,-0.1585,-0.1603,-0.1641,-0.1668,-0.1717,-0.1724,-0.1758,-0.1797,-0.181,-0.182,-0.1876,-0.1856,-0.1888,-0.1921,-0.1929,-0.1934,-0.1939,-0.1937,-0.1941,-0.1894,-0.1895,-0.1895,0,-0.1458,-0.1488,-0.1511,-0.154,-0.1567,-0.16,-0.1633,-0.1665,-0.1715,-0.1739,-0.1745,-0.1809,-0.1822,-0.1864,-0.1886,-0.1892,-0.1887,-0.1887,-0.1937,-0.1941,-0.1945,-0.1941,-0.1945,-0.1897,-0.1897,-0.1897,-0.1897,0,-0.1479,-0.1517,-0.1533,-0.1582,-0.1614,-0.1649,-0.1692,-0.1735,-0.1773,-0.1799,-0.1858,-0.1877,-0.1911,-0.1928,-0.1926,-0.1968,-0.1953,-0.1941,-0.1911,-0.1955,-0.1949,-0.1952,-0.1902,-0.1901,-0.19,-0.1899,0,0,-0.1457,-0.1535,-0.1543,-0.1576,-0.1641,-0.1666,-0.1729,-0.1785,-0.1826,-0.1877,-0.1924,-0.1969,-0.1978,-0.199,-0.1997,-0.2009,-0.2039,-0.1993,-0.1992,-0.1983,-0.2051,-0.1923,-0.1913,-0.2036,-0.2037,-0.2037,-0.2038,0,-0.147,-0.1527,-0.1567,-0.1631,-0.1663,-0.1719,-0.1771,-0.1828,-0.1878,-0.1932,-0.1963,-0.2007,-0.2003,-0.2024,-0.2039,-0.204,-0.2049,-0.2039,-0.2016,-0.2015,-0.1889,-0.1913,-0.204,-0.204,-0.204,-0.2041,-0.2041,0,-0.147,-0.1511,-0.1574,-0.1656,-0.1676,-0.1724,-0.1808,-0.1861,-0.1938,-0.1974,-0.2023,-0.2046,-0.2087,-0.207,-0.209,-0.2086,-0.2073,-0.2066,-0.2066,-0.1925,-0.189,-0.1986,-0.2046,-0.2046,-0.2045,-0.2045,-0.2045,0,-0.1423,-0.1513,-0.1565,-0.1594,-0.1691,-0.1736,-0.1791,-0.1875,-0.1921,-0.2003,-0.2037,-0.2085,-0.2112,-0.2112,-0.2107,-0.2104,-0.2112,-0.2103,-0.1973,-0.1964,-0.2057,-0.2051,-0.2105,-0.2105,-0.2105,-0.2105,-0.2105,0,-0.1402,-0.1446,-0.1553,-0.1578,-0.1643,-0.172,-0.1793,-0.1853,-0.1938,-0.1977,-0.2053,-0.2076,-0.2123,-0.2135,-0.212,-0.2048,-0.2122,-0.1973,-0.1952,-0.2081,-0.2079,-0.2059,-0.2053,-0.2105,-0.2105,-0.2105,-0.2105,0,-0.1337,-0.1411,-0.1474,-0.1584,-0.1623,-0.1667,-0.1784,-0.1822,-0.1919,-0.1971,-0.1997,-0.208,-0.2086,-0.2113,-0.2114,-0.2047,-0.2005,-0.196,-0.2097,-0.2086,-0.1851,-0.1849,-0.1811,-0.1807,-0.1803,-0.18,-0.1797,0,-0.1306,-0.1334,-0.1458,-0.1491,-0.1546,-0.1629,-0.1673,-0.1792,-0.1823,-0.1948,-0.1946,-0.201,-0.2041,-0.1942,-0.1985,-0.1941,-0.1916,-0.1882,-0.1861,-0.1835,-0.182,-0.1824,-0.1827,-0.1791,-0.179,-0.1789,-0.1788,0,-0.1237,-0.1295,-0.1341,-0.1412,-0.1471,-0.1528,-0.1601,-0.1617,-0.1734,-0.1843,-0.1841,-0.1846,-0.1852,-0.1848,-0.1826,-0.1797,-0.1898,-0.1841,-0.1849,-0.1828,-0.1809,-0.1799,-0.1807,-0.1774,-0.1776,-0.1777,-0.1778,0,-0.1179,-0.1195,-0.1262,-0.1309,-0.1377,-0.1395,-0.1458,-0.1489,-0.1543,-0.1678,-0.1672,-0.1744,-0.1828,-0.1773,-0.1754,-0.1713,-0.1685,-0.1622,-0.1641,-0.1656,-0.1604,-0.1557,-0.1419,0,0,0,0,0,-0.1112,-0.1115,-0.1151,-0.1197,-0.1255,-0.1294,-0.1386,-0.1449,-0.1568,-0.1518,-0.1592,-0.1589,-0.1575,-0.162,-0.1542,-0.168,-0.1689,-0.1582,-0.1627,-0.1699,-0.1714,-0.1666,0,0,0,0,0,0,-0.1065,-0.1095,-0.1109,-0.1083,-0.1091,-0.1142,-0.1195,-0.128,-0.1262,-0.139,-0.1389,-0.1484,-0.1493,-0.159,-0.1507,-0.1517,-0.1509,-0.1633,-0.1629,-0.169,-0.1704,-0.1717,-0.1672,0,0,0,0,0]},{"header":{"parameterUnit":"m.s-1","parameterCategory":2,"la1":30.2991,"la2":30.254,"lo1":-89.0895,"lo2":-89.0444,"dy":0.0017,"dx":0.0017,"nx":28,"ny":28,"refTime":"2024-02-04T09:00:00:Z","depth":"4","parameterNumber":3,"parameterNumberName":"V-component_of_CURRENTS"},"data":[0,0,0,0,0,0,0,0,0,0,0,0,0,0,0,0,0,0,0,0,0,0,0,0,0,0,0,0,0,0,0,0,0,0,0,0,0,0,0,0,0,0,0,0,0,0,0,0,0,0,0,0,0,0,0,0,0,0,-0.0054,-0.0053,0,-0.0006,-0.0005,-0.0005,0.0029,0.0029,0.003,0.003,0.0108,0.011,0.0112,0,0,0,0,0,0,0,0,0,0,0,0,0,-0.0083,-0.0083,-0.0054,-0.0053,-0.0053,-0.0006,-0.0005,-0.0005,0.0029,0.0029,0.003,0.003,0.0108,0.011,0.0112,0,0,0,0,0,0,0,0,0,0,0,0,0,-0.0056,-0.0083,-0.0054,-0.0031,-0.0028,-0.0006,-0.0005,-0.0004,0.0029,0.0029,0.003,0.003,0.0107,0.011,0.0112,0.0124,0,0,0.0121,0.0122,0,0,0,0,0,0,0,0,-0.0058,-0.0055,-0.0035,-0.0032,-0.0029,0.0005,0.0013,0.004,0.0029,0.0008,0.003,0.003,0.0076,0.0081,0.009,0.0128,0.0131,0.0121,0.0123,0.0124,0.0125,0,0,0,0,0,0,0,-0.006,-0.0057,-0.0034,-0.0034,-0.0031,-0.0012,-0.0008,0.0018,0.0041,0.001,0.0012,0.0016,0.0078,0.0087,0.0093,0.0132,0.0121,0.0124,0.0126,0.0127,0.0183,0.0183,0,0,0,0,0,0,-0.0069,-0.0059,-0.0035,-0.0033,-0.0044,-0.0012,-0.0007,-0.0006,0.004,0.0047,0.0016,0.0018,0.0082,0.0089,0.0095,0.0107,0.0124,0.0127,0.0129,0.0183,0.0183,0.0183,0,0,0,0,0,0,-0.007,-0.0068,-0.0037,-0.0045,-0.004,-0.0012,-0.001,-0.0005,0.0004,0.0044,0.0052,0.0019,0.0083,0.0091,0.0115,0.011,0.0128,0.0131,0.0184,0.0183,0.0183,0.0133,0,0,0,0,0,0,-0.0071,-0.0068,-0.0072,-0.0046,-0.004,-0.003,-0.001,-0.0004,0.0005,0.0008,0.0049,0.0057,0.0084,0.0111,0.0118,0.0115,0.0133,0.0184,0.0183,0.0183,0.0135,0.0131,0.0128,0,0,0,0,0,-0.0072,-0.008,-0.0073,-0.007,-0.0046,-0.0031,-0.0026,-0.0004,0.0005,0.0005,0.0033,0.0056,0.0113,0.0113,0.0121,0.0119,0.0184,0.0184,0.0183,0.0136,0.0132,0.0128,0,0,0,0,0,0,-0.0094,-0.0076,-0.0068,-0.0069,-0.0054,-0.0025,-0.0024,-0.0009,0.0013,0.0015,0.0054,0.0064,0.0082,0.0107,0.0105,0.0134,0.0152,0.0153,0.0113,0.0109,0.0106,0.0096,0.0136,0,0,0,0,0,-0.0102,-0.0104,-0.0081,-0.0084,-0.0078,-0.0052,-0.0044,-0.003,-0.0007,0.0003,0.0031,0.0061,0.0086,0.0103,0.0127,0.0145,0.0173,0.0148,0.0145,0.0141,0.0139,0.0176,0.0176,0.0181,0.0181,0.0181,0,0,-0.0111,-0.0102,-0.0103,-0.0089,-0.0075,-0.0073,-0.0047,-0.0039,-0.0036,0.0008,0.002,0.0048,0.0087,0.0104,0.0115,0.0126,0.0154,0.0141,0.0138,0.0137,0.0176,0.0175,0.0175,0.0181,0.0181,0.0181,0,0,-0.0131,-0.0123,-0.0131,-0.0125,-0.0111,-0.0093,-0.0093,-0.0068,-0.0055,-0.0041,-0.0009,0.0017,0.0053,0.0082,0.0102,0.0094,0.0131,0.01,0.0078,0.0113,0.0113,0.0113,0.0144,0.0148,0.0101,0.0101,0.0101,0,-0.0144,-0.0151,-0.0131,-0.014,-0.014,-0.0105,-0.0115,-0.0096,-0.0067,-0.0057,-0.0045,0.0011,0.0044,0.0072,0.0069,0.0086,0.011,0.009,0.0108,0.0109,0.011,0.0142,0.0146,0.0099,0.0099,0.0099,0.0099,0,-0.017,-0.0178,-0.0184,-0.0183,-0.018,-0.0183,-0.0158,-0.0147,-0.0128,-0.0105,-0.0078,-0.0032,0.0003,0.0017,0.0042,0.0065,0.0079,0.0096,0.0117,0.0107,0.0141,0.0146,0.0095,0.0096,0.0097,0.0097,0,0,-0.0191,-0.0201,-0.0204,-0.0217,-0.0206,-0.0207,-0.0201,-0.0183,-0.018,-0.0143,-0.0132,-0.0083,-0.0054,-0.0031,0.0007,0.0041,0.007,0.0067,0.007,0.0094,0.0144,0.0137,0.0143,0.0088,0.0089,0.009,0.0164,0,-0.0218,-0.0251,-0.0244,-0.0271,-0.0284,-0.0261,-0.0263,-0.0244,-0.0214,-0.0193,-0.0136,-0.0112,-0.0072,-0.0058,-0.0018,0.0048,0.0082,0.0048,0.0155,0.0158,0.015,0.0148,0.0092,0.0168,0.0169,0.017,0.0171,0,-0.0245,-0.0265,-0.0302,-0.0324,-0.0328,-0.0338,-0.0336,-0.0329,-0.0285,-0.0265,-0.022,-0.0173,-0.0114,-0.0084,0.0026,0.0001,0.0065,0.0118,0.0122,0.0137,0.0161,0.0184,0.0181,0.0181,0.018,0.0179,0.0178,0,-0.0276,-0.0304,-0.0338,-0.0347,-0.0363,-0.0377,-0.0378,-0.0353,-0.0352,-0.0304,-0.0295,-0.0216,-0.0177,-0.0087,0.0028,0.0026,0.0149,0.0163,0.0218,0.0219,0.0225,0.0225,0.0236,0.0236,0.0236,0.0236,0.0236,0,-0.0306,-0.0333,-0.036,-0.0382,-0.0428,-0.0419,-0.0448,-0.0436,-0.0413,-0.0414,-0.0334,-0.0309,-0.0176,-0.0085,0.0015,0.0134,0.0144,0.0213,0.0237,0.0202,0.0198,0.0229,0.0228,0.0239,0.0238,0.0237,0.0237,0,-0.0331,-0.0347,-0.0393,-0.0429,-0.0446,-0.0478,-0.0506,-0.0516,-0.049,-0.0485,-0.0474,-0.0373,-0.0257,-0.0119,0.0035,0.0112,0.0229,0.027,0.022,0.024,0.0276,0.0271,0.0331,0.0331,0.0332,0.0332,0.0332,0,-0.0345,-0.0372,-0.0437,-0.0474,-0.0495,-0.0538,-0.0568,-0.0561,-0.0566,-0.0523,-0.052,-0.0411,-0.0332,-0.0114,0.003,0.0219,0.0246,0.0304,0.029,0.0269,0.0286,0.0281,0.0275,0.0332,0.0333,0.0333,0.0333,0,-0.0372,-0.0398,-0.0437,-0.0519,-0.0568,-0.0615,-0.0651,-0.0663,-0.0645,-0.0627,-0.0555,-0.0435,-0.03,-0.0123,0.0028,0.0164,0.0263,0.0307,0.0307,0.0295,0.0272,0.0287,0.0282,0.0334,0.0334,0.0333,0.0333,0,-0.0389,-0.0427,-0.0484,-0.0552,-0.0619,-0.0668,-0.0687,-0.0685,-0.0685,-0.0633,-0.0609,-0.0454,-0.036,-0.0151,-0.0012,0.0121,0.0151,0.0187,0.0194,0.0195,0.0134,0.0083,0.0106,0,0,0,0,0,-0.04,-0.0444,-0.0512,-0.0585,-0.065,-0.0686,-0.0728,-0.0732,-0.0721,-0.0681,-0.0644,-0.0518,-0.0301,-0.0194,-0.0064,-0.001,0.017,0.0146,0.0215,0.0339,0.0338,0.0289,0,0,0,0,0,0,-0.0408,-0.0472,-0.051,-0.0593,-0.0645,-0.071,-0.0739,-0.0735,-0.0703,-0.0674,-0.0554,-0.0492,-0.0274,-0.0376,-0.0062,-0.0021,0.0038,0.0251,0.0254,0.034,0.0339,0.0338,0.0287,0,0,0,0,0]}]]